Location: Newark
(44.1667°N, 8.2500°E)
Time: 00:35:59
(UTC+00:00)

Vanguard 2 - Pass Details

Date: 08 December 2019
Orbit: 553 x 2938 km, 32.9° (Epoch: 21 January)

Event Time Altitude Azimuth Distance (km) Brightness Sun altitude
Exits shadow 01:18:06 37° 128° (SE) 3,957 11.0 -57.4°
Drops below altitude 10° 01:29:19 10° 92° (E) 5,514 12.2 -55.7°
Sets 01:33:35 0° 86° (E) 6,327 12.7 -55.0°
